OPS 4682 DEB, 38376

Orbit data source: Space-Track

OPS 4682 DEB, 38376 is space debris in LEO originally from a launch on Sat, 03 Apr 1965 UTC launched from the Air Force Western Test Range (AFWTR). Debris objects in space refer to the collection of defunct objects orbiting the Earth. Examples of debris include non-operational satellites, rocket bodies, and fragments generated from explosions, collisions, or faulty payload assembly.

Loading next visibility...
Identifier
38376, 1965-027CD
Orbit
LEO
Country
Flag of USUS
Related business
Manufacturer
Unknown
Mission
Spacecraft
Bus & Motor
Unknown
Mass
Unknown
Launch date (UTC)
1965-04-03 (61 years ago)
Launch vehicle
Unknown
Launch site
Air Force Western Test Range (AFWTR)
Object type
Payload
Rocket body
Debris
Shape & HBR
Unknown shape, 0.1 m
Radar Cross Section
Small (<0.1 m²)

Expand to show TLE details & history
Last TLE update: 4 days ago

TLE from 4 days ago
0 OPS 4682 DEB
1 38376U 65027CD  25337.39550214  .00000391  00000-0  13527-2 0  9999
2 38376  90.2397   6.4418 0026847 297.8209  62.0190 12.95781180636438
Epoch: 2025-12-03T09:29Z
TLE epoch observation values (Epoch: 2025-12-03T09:29:31.384Z)
Latitude
-0.00008°
Longitude
151.59412°
Altitude
1,271.935 km
Speed
7.224 km/s
True Right ascension
00h 25m 46s
True Declination
0° 00' 00"
Sunlit
Object was in daylight at epoch
Visualization orbit readout
Latitude
Unknown
Longitude
Unknown
Altitude
Unknown
Speed
Unknown
Apparent Right ascension
Unknown
Apparent Declination
Unknown
Sunlit
N/A
Visualization observer readout
Local Sidereal Time
03:28:21
Azimuth
Unknown
Elevation
Unknown
Doppler factor
Unknown
Orbital elements
Apogee altitude
1,296.343 km
Perigee altitude
1,255.246 km
Semi-major axis
7,653.931 km
Eccentricity
0.00268
Inclination
90.2397°
RAAN
6.4418°
Arg. of periapsis
297.8209°
True anomaly
62.29111°
Mean anomaly
62.019°
Eccentric anomaly
62.15501°
Mean motion
3.24128 °/min
Orbital period
111.07 mins
BSTAR
0.0013527
Loading maneuver chart data...
Computing Atmospheric mass density...
Loading historical data...
Loading historical data...
Loading historical data...
Loading historical data...
Loading historical data...
Loading historical data...
Loading historical data...

Documentation

Showing up to 5 results
|